Location: Finkenbach
(49.5340°N, 8.9188°E)
Time: 16:26:59
(UTC+00:00)

Cosmos 2263 Rocket - Pass Details

Date: 17 June 2025
Orbit: 822 x 848 km, 71.0° (Epoch: 20 July)

Event Time Altitude Azimuth Distance (km) Brightness Sun altitude
Rises 20:49:07 0° 200° (SSW) 3,385 5.0 -9.2°
Reaches altitude 10° 20:51:33 10° 198° (SSW) 2,458 4.3 -9.4°
Maximum altitude 20:57:11 73° 115° (ESE) 888 2.2 -10.0°
Drops below altitude 10° 21:02:52 10° 32° (NNE) 2,483 5.0 -10.5°
Sets 21:05:20 0° 30° (NNE) 3,422 5.8 -10.7°
